GW1675 Weather Reports


Display with metric or nautical units.
time (UTC)temp
F
wind
direction
speed
MPH
gust
MPH
rain 1hr
in
rain 24hr
in
rain mn
in
humidity
%
barometer
mb
20260906200054 90 124 4.0 9.0 0.00 0.00 0.00 66 1020.5
20260906194549 88 124 5.0 10.0 0.00 0.00 0.00 66 1020.3
20260906193059 87 123 2.0 5.0 0.00 0.00 0.00 66 1020.2
20260906191557 88 124 2.0 5.0 0.00 0.00 0.00 66 1020.1
20260906190107 89 123 2.0 7.0 0.00 0.00 0.00 66 1019.8
20260906184602 90 123 4.0 7.0 0.00 0.00 0.00 66 1019.7
20260906183110 91 123 4.0 7.0 0.00 0.00 0.00 66 1019.7
20260906181558 92 123 3.0 6.0 0.00 0.00 0.00 67 1019.8
20260906180110 93 123 3.0 8.0 0.00 0.00 0.00 67 1019.6
20260906174558 93 124 4.0 9.0 0.00 0.00 0.00 67 1019.8
20260906173107 93 123 4.0 8.0 0.00 0.00 0.00 67 1019.8
20260906171558 93 124 4.0 9.0 0.00 0.00 0.00 67 1019.8
20260906170115 93 123 3.0 10.0 0.00 0.00 0.00 67 1019.9
20260906164601 93 124 6.0 10.0 0.00 0.00 0.00 67 1019.8
20260906163057 92 123 7.0 12.0 0.00 0.00 0.00 67 1019.9
20260906161554 92 123 7.0 10.0 0.00 0.00 0.00 67 1019.9
20260906154558 91 123 5.0 10.0 0.00 0.00 0.00 68 1020.1
20260906153056 91 123 5.0 13.0 0.00 0.00 0.00 68 1020.3
20260906151608 91 122 7.0 11.0 0.00 0.00 0.00 68 1020.4
20260906150106 91 122 5.0 9.0 0.00 0.00 0.00 68 1020.4
20260906144555 91 122 4.0 12.0 0.00 0.00 0.00 68 1020.5
20260906143124 90 122 6.0 10.0 0.00 0.00 0.00 68 1020.4
20260906141553 90 122 6.0 9.0 0.00 0.00 0.00 68 1020.6
20260906134603 91 122 5.0 10.0 0.00 0.00 0.00 68 1020.8
20260906133103 90 122 5.0 9.0 0.00 0.00 0.00 68 1020.7
20260906131556 90 122 6.0 9.0 0.00 0.00 0.00 68 1020.9
20260906130057 89 122 4.0 10.0 0.00 0.00 0.00 68 1020.9
20260906124552 90 122 5.0 10.0 0.00 0.00 0.00 69 1021.0
20260906123136 89 122 5.0 9.0 0.00 0.00 0.00 69 1020.9
20260906121558 90 122 5.0 8.0 0.00 0.00 0.00 69 1021.0
20260906120057 90 119 3.0 7.0 0.00 0.00 0.00 69 1020.9
20260906114553 90 118 4.0 8.0 0.00 0.00 0.00 69 1021.0
20260906113101 90 119 6.0 9.0 0.00 0.00 0.00 69 1021.0
20260906111559 90 118 6.0 10.0 0.00 0.00 0.00 69 1021.0
20260906110056 90 119 2.0 9.0 0.00 0.00 0.00 69 1021.1
20260906104607 89 118 3.0 9.0 0.00 0.00 0.00 69 1021.2
20260906103059 88 118 5.0 9.0 0.00 0.00 0.00 69 1021.4
20260906101557 89 118 5.0 11.0 0.00 0.00 0.00 69 1021.4
20260906100057 88 118 4.0 9.0 0.00 0.00 0.00 69 1021.4
20260906094607 88 119 5.0 12.0 0.00 0.00 0.00 69 1021.2
20260906093100 90 119 7.0 11.0 0.00 0.00 0.00 70 1021.1
20260906091603 90 119 7.0 12.0 0.00 0.00 0.00 70 1021.1
20260906090101 89 119 8.0 13.0 0.00 0.00 0.00 69 1021.1
20260906084559 88 121 3.0 9.0 0.00 0.00 0.00 69 1021.0
20260906083058 87 121 5.0 7.0 0.00 0.00 0.00 69 1021.0
20260906081558 86 121 3.0 10.0 0.00 0.00 0.00 69 1020.9
20260906080054 85 121 4.0 6.0 0.00 0.00 0.00 69 1020.8
20260906074606 84 121 0.0 2.0 0.00 0.00 0.00 69 1020.7
20260906073058 83 121 0.0 2.0 0.00 0.00 0.00 69 1020.7
20260906071555 82 121 1.0 6.0 0.00 0.00 0.00 68 1020.5
20260906070056 82 121 4.0 9.0 0.00 0.00 0.00 68 1020.4
20260906064559 81 121 4.0 7.0 0.00 0.00 0.00 68 1020.3
20260906063101 81 121 3.0 5.0 0.00 0.00 0.00 68 1020.3
20260906061559 80 121 3.0 6.0 0.00 0.00 0.00 68 1020.2
20260906060055 79 121 2.0 5.0 0.00 0.00 0.00 68 1020.2
20260906054550 79 121 1.0 4.0 0.00 0.00 0.00 68 1020.1
20260906053108 79 0 0.0 1.0 0.00 0.00 0.00 68 1020.0
20260906051600 79 121 0.0 2.0 0.00 0.00 0.00 68 1019.9
20260906050056 79 121 3.0 6.0 0.00 0.00 0.00 68 1019.9
20260906044559 79 121 4.0 7.0 0.00 0.00 0.00 68 1019.7
20260906043102 78 121 5.0 8.0 0.00 0.00 0.00 68 1019.7
20260906041600 77 121 1.0 3.0 0.00 0.00 0.00 67 1019.9
20260906040053 77 121 1.0 4.0 0.00 0.00 0.00 67 1020.0
20260906034606 77 121 3.0 7.0 0.00 0.00 0.00 67 1019.8
20260906033109 77 121 3.0 5.0 0.00 0.00 0.00 67 1019.9
20260906031553 78 121 2.0 7.0 0.00 0.00 0.00 67 1019.9
20260906024601 78 121 5.0 10.0 0.00 0.00 0.00 67 1020.1
20260906023057 78 121 5.0 8.0 0.00 0.00 0.00 67 1020.2
20260906021558 77 121 2.0 6.0 0.00 0.00 0.00 67 1020.2
20260906020110 77 121 3.0 6.0 0.00 0.00 0.00 67 1020.3
20260906014601 77 121 1.0 4.0 0.00 0.00 0.00 67 1020.3
20260906013108 76 121 2.0 6.0 0.00 0.00 0.00 67 1020.5
20260906011606 75 0 0.0 1.0 0.00 0.00 0.00 67 1020.5
20260906010059 75 121 0.0 1.0 0.00 0.00 0.00 67 1020.6
20260906004602 75 0 0.0 1.0 0.00 0.00 0.00 67 1020.9
20260906003103 75 0 0.0 0.0 0.00 0.00 0.00 67 1020.9
20260906001556 76 121 0.0 3.0 0.00 0.00 0.00 67 1021.0
20260906000058 76 0 0.0 2.0 0.00 0.00 0.00 67 1020.8
20260905234600 77 0 0.0 2.0 0.00 0.00 0.00 67 1020.8
20260905233057 78 0 0.0 0.0 0.00 0.00 0.00 67 1021.0
20260905231559 79 121 0.0 1.0 0.00 0.00 0.00 67 1020.7
20260905230058 78 0 0.0 0.0 0.00 0.00 0.00 67 1020.8
20260905224559 78 0 0.0 1.0 0.00 0.00 0.00 67 1020.8
20260905223059 79 121 0.0 1.0 0.00 0.00 0.00 67 1020.7
20260905221556 79 121 1.0 2.0 0.00 0.00 0.00 67 1020.8
20260905220054 80 0 0.0 0.0 0.00 0.00 0.00 68 1020.6
20260905214604 80 0 0.0 0.0 0.00 0.00 0.00 68 1020.6
20260905213059 81 0 0.0 1.0 0.00 0.00 0.00 68 1020.6
20260905211558 82 121 1.0 1.0 0.00 0.00 0.00 68 1020.5
20260905210120 82 0 0.0 0.0 0.00 0.00 0.00 68 1020.3
20260905204602 83 0 0.0 0.0 0.00 0.00 0.00 68 1020.1
20260905203101 84 0 0.0 1.0 0.00 0.00 0.00 68 1020.0
20260905201558 84 121 0.0 3.0 0.00 0.00 0.00 68 1019.9